Weather History for Baudette, MN

Change the Weather History Date:

Thursday, February 7, 2013

  Actual Average Record
Temperature  
Mean Temperature 4 °F -  
Max Temperature 16 °F 21 °F 47 °F (1991)
Min Temperature -9 °F -4 °F -46 °F (1933)
Degree Days  
Heating Degree Days 62    
Moisture  
Dew Point 0 °F    
Average Humidity 83    
Maximum Humidity 92    
Minimum Humidity 65    
Precipitation  
Precipitation 0.00 in - - ()
Sea Level Pressure  
Sea Level Pressure 30.30 in    
Wind  
Wind Speed 2 mph (NNW)    
Max Wind Speed 7 mph    
Max Gust Speed -    
Visibility 8 miles    
Events Snow    
Averages and records for this station are not official NWS values.
T = Trace of Precipitation, MM = Missing Value Source: NWS Daily Summary

Daily Weather History Graph

Daily Weather History Graph

Search for Another Location

Airport:

Trip Planner

Search our weather history database for the weather conditions in past years. The results will help you decide how hot, cold, wet, or windy it might be!

Date:

Astronomy

Feb. 07, 2013 Rise Set
Actual Time 7:38 AM CST 5:26 PM CST
Civil Twilight 7:05 AM CST 6:00 PM CST
Nautical Twilight 6:28 AM CST 6:37 PM CST
Astronomical Twilight 5:51 AM CST 7:14 PM CST
Moon 5:27 AM CST (2/7) 2:45 PM CST (2/7)
Length of Visible Light 10h 54m
Length of Day
9h 47m
Waning Crescent, 9% of the Moon is Illuminated
Feb 7
Waning Crescent
Feb 10
New
Feb 17
First Quarter
Feb 25
Full
Mar 4
Last Quarter

Hourly Weather History & Observations

Time (CST) Temp. Windchill Dew Point Humidity Pressure Visibility Wind Dir Wind Speed Gust Speed Precip Events Conditions
12:53 AM 1.9 °F - -0.0 °F 91% 30.25 in 10.0 mi Calm Calm - N/A   Clear
1:15 AM -0.4 °F - -4.0 °F 85% 30.16 in 10.0 mi Calm Calm - N/A   Mostly Cloudy
1:24 AM -2.2 °F - -5.8 °F 85% 30.16 in 10.0 mi Calm Calm - N/A   Scattered Clouds
1:53 AM -5.1 °F -15.8 °F -8.0 °F 87% 30.26 in 10.0 mi North 4.6 mph - N/A   Clear
2:53 AM -2.0 °F -10.1 °F -4.0 °F 91% 30.27 in 10.0 mi North 3.5 mph - N/A   Scattered Clouds
3:53 AM -8.0 °F -16.9 °F -11.0 °F 86% 30.28 in 10.0 mi NNW 3.5 mph - N/A   Clear
4:23 AM -9.4 °F - -13.0 °F 84% 30.19 in 10.0 mi Calm Calm - N/A   Mostly Cloudy
4:53 AM -2.9 °F - -7.1 °F 82% 30.29 in 10.0 mi Calm Calm - N/A   Overcast
5:53 AM -0.0 °F -7.9 °F -2.9 °F 88% 30.30 in 10.0 mi NNW 3.5 mph - N/A   Overcast
6:53 AM 1.9 °F - -0.9 °F 88% 30.30 in 10.0 mi Calm Calm - N/A   Overcast
7:53 AM 3.0 °F -4.4 °F -0.0 °F 87% 30.31 in 10.0 mi NNW 3.5 mph - N/A   Overcast
8:53 AM 3.9 °F -5.3 °F 1.0 °F 88% 30.34 in 3.0 mi NW 4.6 mph - 0.00 in Snow Light Snow
9:03 AM 3.2 °F -4.2 °F 1.4 °F 92% 30.25 in 2.5 mi NW 3.5 mph - 0.00 in Snow Light Snow
9:17 AM 3.2 °F -4.2 °F 1.4 °F 92% 30.26 in 3.0 mi NW 3.5 mph - 0.00 in Snow Light Snow
9:26 AM 5.0 °F - 1.4 °F 85% 30.26 in 2.5 mi Calm Calm - 0.00 in Snow Light Snow
9:45 AM 6.8 °F - 3.2 °F 85% 30.26 in 3.0 mi Calm Calm - 0.00 in Snow Light Snow
9:53 AM 6.1 °F - 3.9 °F 91% 30.35 in 2.5 mi Calm Calm - 0.00 in Snow Light Snow
10:05 AM 6.8 °F - 5.0 °F 92% 30.26 in 4.0 mi Calm Calm - 0.00 in Snow Light Snow
10:53 AM 10.0 °F 3.6 °F 5.0 °F 80% 30.35 in 7.0 mi NNW 3.5 mph - 0.00 in   Overcast
11:53 AM 12.0 °F - 6.1 °F 77% 30.36 in 8.0 mi Calm Calm - N/A   Overcast
12:53 PM 12.0 °F - 7.0 °F 80% 30.35 in 10.0 mi Calm Calm - N/A   Overcast
1:53 PM 16.0 °F - 8.1 °F 71% 30.35 in 10.0 mi Calm Calm - N/A   Overcast
2:53 PM 16.0 °F 7.4 °F 6.1 °F 65% 30.34 in 10.0 mi NNW 5.8 mph - N/A   Mostly Cloudy
3:08 PM 15.8 °F 7.2 °F 6.8 °F 68% 30.25 in 10.0 mi North 5.8 mph - N/A   Partly Cloudy
3:53 PM 14.0 °F 3.9 °F 6.1 °F 71% 30.34 in 10.0 mi North 6.9 mph - N/A   Clear
4:53 PM 10.9 °F 0.2 °F 3.9 °F 73% 30.35 in 10.0 mi NNW 6.9 mph - N/A   Clear
5:45 PM 8.6 °F - 3.2 °F 79% 30.26 in 10.0 mi Calm Calm - N/A   Mostly Cloudy
5:53 PM 8.1 °F 1.4 °F 3.0 °F 80% 30.35 in 10.0 mi North 3.5 mph - N/A   Mostly Cloudy
6:53 PM 5.0 °F -4.1 °F 1.0 °F 84% 30.37 in 10.0 mi NW 4.6 mph - N/A   Mostly Cloudy
7:53 PM 1.0 °F - -2.9 °F 83% 30.37 in 10.0 mi Calm Calm - N/A   Overcast
8:53 PM 3.0 °F - -0.9 °F 84% 30.38 in 10.0 mi Calm Calm - N/A   Overcast
9:53 PM 3.9 °F - -0.0 °F 84% 30.38 in 10.0 mi Calm Calm - N/A   Overcast
10:53 PM 3.0 °F - -0.0 °F 87% 30.38 in 10.0 mi Calm Calm - N/A   Overcast
11:53 PM 3.9 °F -3.4 °F -0.0 °F 84% 30.37 in 10.0 mi East 3.5 mph - N/A   Overcast